Regional Weather Roundup
Issued by NWS

Home | Current Version | Previous Version | Graphics & Text | Print | Product List | Glossary On
Versions: 1 2 3 4 5 6 7 8 9 10 11 12 13 14 15 16 17 18 19 20 21 22 23 24 25 26 27 28 29 30 31 32 33 34 35 36 37 38 39 40 41 42 43 44 45 46 47 48 49 50
000
ASUS43 KTOP 131359
RWRKS

WEATHER ROUNDUP FOR KANSAS
NATIONAL WEATHER SERVICE GOODLAND KS
900 AM CDT SUN JUL 13 2014

NOTE:  "FAIR" INDICATES FEW OR NO CLOUDS BELOW 12,000 FEET WITH NO
SIGNIFICANT WEATHER AND/OR OBSTRUCTIONS TO VISIBILITY.

KSZ001>006-013>018-027>032-041>047-131500-
NORTHWEST KANSAS

CITY           SKY/WX    TMP DP  RH WIND       PRES   REMARKS
GOODLAND       PTSUNNY   73  63  70 N10       30.22R
HAYS           PTSUNNY   72  61  68 NE8       30.12S
HILL CITY      PTSUNNY   76  65  68 NE17      30.13F
RUSSELL        PTSUNNY   73  65  75 N13       30.11R
$$

KSZ061>065-074>080-084>089-131500-
SOUTHWEST KANSAS

CITY           SKY/WX    TMP DP  RH WIND       PRES   REMARKS
DODGE CITY     MOSUNNY   74  64  71 N17       30.14R
ELKHART          N/A     71  62  73 W7          N/A
GARDEN CITY    MOSUNNY   72  65  78 N7        30.18R
GREAT BEND     PTSUNNY   72  64  78 N13       30.09S
LIBERAL        PTSUNNY   72  63  73 NW8       30.21R
$$

KSZ066>073-081>083-090>101-131500-
SOUTHEAST KANSAS

CITY           SKY/WX    TMP DP  RH WIND       PRES   REMARKS
CHANUTE        SUNNY     77  64  64 E6        30.03F
COFFEYVILLE    SUNNY     79  66  64 S9        30.02S
HUTCHINSON     PTSUNNY   73  69  87 N12       30.04R
MEDICINE LODGE   N/A     77  71  82 N15       30.05R
NEWTON         MOSUNNY   73  64  73 N17       30.05F
PARSONS        SUNNY     78  64  61 SW8       30.04S
WICHITA INTL   PTSUNNY   77  64  64 N10       30.01S
WICHITA JABRA  PTSUNNY   77  64  64 N10       30.01R
WINFIELD       SUNNY     79  64  60 SW14G21   30.03S
$$

KSZ007>012-019>026-033>040-048>060-102>105-131500-
NORTHEAST KANSAS

CITY           SKY/WX    TMP DP  RH WIND       PRES   REMARKS
CONCORDIA      SUNNY     74  68  81 NE8       30.10R
EMPORIA        LGT RAIN  74  68  81 E6        30.03R
LAWRENCE       TSTM      72  70  93 N5        30.02S FOG
MANHATTAN      CLOUDY    74  70  87 N5        30.05R
OLATHE IND     PTSUNNY   73  70  90 SE5       30.01F
OLATHE EXE     TSTM      71  69  93 VRB6      30.00F
SALINA         CLOUDY    75  69  81 N13       30.06S
TOPEKA BILLARD PTSUNNY   75  72  90 CALM      30.04R
TOPEKA FORBES  PTSUNNY   73  71  93 N6        30.04R
$$


USA.gov is the U.S. government's official web portal to all federal, state and local government web resources and services.